Time,TemperatureF,DewpointF,PressureIn,WindDirection,WindDirectionDegrees,WindSpeedMPH,WindSpeedGustMPH,Humidity,HourlyPrecipIn,Conditions,Clouds,dailyrainin,SolarRadiationWatts/m^2,SoftwareType,DateUTC
2013-07-06 00:00:00,82.1,75.7,29.85,ESE,112,1.0,5.0,81,0.00,,,0.00,0.00,VWS V14.00,2013-07-06 05:00:00,
2013-07-06 00:15:00,81.9,75.5,29.85,ESE,112,1.0,4.0,81,0.00,,,0.00,0.00,VWS V14.00,2013-07-06 05:15:00,
2013-07-06 00:30:00,82.0,76.0,29.84,East,90,1.0,6.0,82,0.00,,,0.00,0.00,VWS V14.00,2013-07-06 05:30:00,
2013-07-06 00:45:00,82.3,75.9,29.84,East,90,2.0,7.0,81,0.00,,,0.00,0.00,VWS V14.00,2013-07-06 05:45:00,
2013-07-06 01:30:00,81.9,75.5,29.84,SE,135,1.0,5.0,81,0.00,,,0.00,0.00,VWS V14.00,2013-07-06 06:30:00,
2013-07-06 01:45:00,81.6,75.2,29.84,SE,135,0.0,3.0,81,0.00,,,0.00,0.00,VWS V14.00,2013-07-06 06:45:00,
2013-07-06 02:15:00,81.2,74.8,29.84,ESE,112,1.0,4.0,81,0.00,,,0.00,0.00,VWS V14.00,2013-07-06 07:15:00,
2013-07-06 02:45:00,81.0,74.6,29.84,SE,135,0.0,1.0,81,0.00,,,0.00,0.00,VWS V14.00,2013-07-06 07:45:00,
2013-07-06 04:15:00,80.8,74.4,29.84,SSE,158,0.0,0.0,81,0.00,,,0.00,0.00,VWS V14.00,2013-07-06 09:15:00,
2013-07-06 06:15:00,76.6,72.8,29.83,SSE,158,0.0,1.0,88,0.00,,,0.00,0.00,VWS V14.00,2013-07-06 11:15:00,
2013-07-06 07:00:00,76.0,72.5,29.84,SSE,158,0.0,0.0,89,0.00,,,0.00,18.00,VWS V14.00,2013-07-06 12:00:00,
2013-07-06 07:15:00,76.1,73.0,29.84,NNW,338,0.0,2.0,90,0.00,,,0.00,33.00,VWS V14.00,2013-07-06 12:15:00,
2013-07-06 07:45:00,77.9,74.1,29.85,NNW,338,1.0,3.0,88,0.00,,,0.00,147.00,VWS V14.00,2013-07-06 12:45:00,
2013-07-06 08:00:00,79.3,75.1,29.85,NNW,338,0.0,3.0,87,0.00,,,0.00,207.00,VWS V14.00,2013-07-06 13:00:00,
2013-07-06 08:15:00,80.7,75.4,29.86,ENE,68,1.0,4.0,84,0.00,,,0.00,262.00,VWS V14.00,2013-07-06 13:15:00,
2013-07-06 08:30:00,82.0,76.0,29.85,NE,45,1.0,3.0,82,0.00,,,0.00,317.00,VWS V14.00,2013-07-06 13:30:00,
2013-07-06 09:15:00,85.6,76.0,29.85,NE,45,2.0,6.0,73,0.00,,,0.00,483.00,VWS V14.00,2013-07-06 14:15:00,
2013-07-06 09:45:00,86.9,75.5,29.84,ENE,68,2.0,6.0,69,0.00,,,0.00,595.00,VWS V14.00,2013-07-06 14:45:00,
2013-07-06 10:30:00,87.9,74.2,29.85,SSE,158,2.0,6.0,64,0.00,,,0.00,585.00,VWS V14.00,2013-07-06 15:30:00,
2013-07-06 10:45:00,89.2,73.5,29.85,East,90,2.0,5.0,60,0.00,,,0.00,816.00,VWS V14.00,2013-07-06 15:45:00,
2013-07-06 11:00:00,89.3,74.6,29.86,ESE,112,3.0,9.0,62,0.00,,,0.00,904.00,VWS V14.00,2013-07-06 16:00:00,
2013-07-06 11:30:00,89.4,74.2,29.85,East,90,2.0,9.0,61,0.00,,,0.00,642.00,VWS V14.00,2013-07-06 16:30:00,
2013-07-06 12:15:00,90.7,75.9,29.85,SE,135,4.0,12.0,62,0.00,,,0.00,909.00,VWS V14.00,2013-07-06 17:15:00,
2013-07-06 12:30:00,90.2,76.8,29.85,South,180,4.0,12.0,65,0.00,,,0.00,949.00,VWS V14.00,2013-07-06 17:30:00,
2013-07-06 13:00:00,91.1,76.3,29.85,SSE,158,4.0,12.0,62,0.00,,,0.00,944.00,VWS V14.00,2013-07-06 18:00:00,
2013-07-06 13:15:00,90.4,76.6,29.84,South,180,4.0,12.0,64,0.00,,,0.00,987.00,VWS V14.00,2013-07-06 18:15:00,
2013-07-06 13:30:00,91.0,75.2,29.84,South,180,4.0,11.0,60,0.00,,,0.00,968.00,VWS V14.00,2013-07-06 18:30:00,
2013-07-06 14:00:00,91.4,75.6,29.82,SSE,158,4.0,12.0,60,0.00,,,0.00,959.00,VWS V14.00,2013-07-06 19:00:00,
2013-07-06 14:15:00,91.6,75.8,29.82,South,180,4.0,13.0,60,0.00,,,0.00,946.00,VWS V14.00,2013-07-06 19:15:00,
2013-07-06 14:30:00,92.0,75.6,29.82,East,90,4.0,11.0,59,0.00,,,0.00,935.00,VWS V14.00,2013-07-06 19:30:00,
2013-07-06 14:45:00,91.4,77.5,29.81,South,180,5.0,15.0,64,0.00,,,0.00,916.00,VWS V14.00,2013-07-06 19:45:00,
2013-07-06 15:15:00,91.2,74.9,29.81,ESE,112,5.0,12.0,59,0.00,,,0.00,873.00,VWS V14.00,2013-07-06 20:15:00,
2013-07-06 16:30:00,90.4,76.1,29.79,ESE,112,5.0,12.0,63,0.00,,,0.00,705.00,VWS V14.00,2013-07-06 21:30:00,
2013-07-06 16:45:00,89.7,76.4,29.79,ESE,112,5.0,13.0,65,0.00,,,0.00,663.00,VWS V14.00,2013-07-06 21:45:00,
2013-07-06 17:00:00,89.8,75.1,29.79,ESE,112,5.0,13.0,62,0.00,,,0.00,620.00,VWS V14.00,2013-07-06 22:00:00,
2013-07-06 17:30:00,89.6,75.3,29.78,ESE,112,5.0,12.0,63,0.00,,,0.00,529.00,VWS V14.00,2013-07-06 22:30:00,
2013-07-06 17:45:00,89.3,76.0,29.78,ESE,112,5.0,13.0,65,0.00,,,0.00,480.00,VWS V14.00,2013-07-06 22:45:00,
2013-07-06 18:00:00,89.1,76.3,29.78,SE,135,4.0,11.0,66,0.00,,,0.00,430.00,VWS V14.00,2013-07-06 23:00:00,
2013-07-06 19:00:00,87.1,77.0,29.78,ESE,107,6.0,14.0,72,0.00,,,0.00,225.00,VWS V14.00,2013-07-07 00:00:00,
2013-07-06 19:15:00,86.3,76.6,29.80,East,90,6.0,13.0,73,0.00,,,0.00,168.00,VWS V14.00,2013-07-07 00:15:00,
2013-07-06 19:30:00,86.0,76.3,29.80,East,90,6.0,15.0,73,0.00,,,0.00,123.00,VWS V14.00,2013-07-07 00:30:00,
2013-07-06 19:45:00,85.8,77.4,29.80,East,90,5.0,14.0,76,0.00,,,0.00,78.00,VWS V14.00,2013-07-07 00:45:00,
2013-07-06 20:00:00,85.0,77.4,29.81,ESE,112,6.0,13.0,78,0.00,,,0.00,32.00,VWS V14.00,2013-07-07 01:00:00,
2013-07-06 20:15:00,84.5,77.3,29.81,ESE,112,5.0,12.0,79,0.00,,,0.00,17.00,VWS V14.00,2013-07-07 01:15:00,
2013-07-06 20:30:00,84.4,77.6,29.81,ESE,112,4.0,10.0,80,0.00,,,0.00,5.00,VWS V14.00,2013-07-07 01:30:00,
2013-07-06 21:15:00,84.0,77.5,29.81,East,90,3.0,10.0,81,0.00,,,0.00,0.00,VWS V14.00,2013-07-07 02:15:00,
2013-07-06 22:30:00,83.2,76.8,29.82,ESE,112,1.0,5.0,81,0.00,,,0.00,0.00,VWS V14.00,2013-07-07 03:30:00,
2013-07-06 22:45:00,83.0,76.9,29.82,ESE,102,0.0,1.0,82,0.00,,,0.00,0.00,VWS V14.00,2013-07-07 03:45:00,
2013-07-06 23:00:00,82.9,77.6,29.82,East,90,1.0,5.0,84,0.00,,,0.00,0.00,VWS V14.00,2013-07-07 04:00:00,
2013-07-06 23:15:00,82.7,77.4,29.83,ESE,112,0.0,2.0,84,0.00,,,0.00,0.00,VWS V14.00,2013-07-07 04:15:00,
2013-07-06 23:30:00,82.5,77.5,29.83,ESE,112,0.0,3.0,85,0.00,,,0.00,0.00,VWS V14.00,2013-07-07 04:30:00,
2013-07-06 23:45:00,82.1,76.8,29.83,ESE,112,0.0,1.0,84,0.00,,,0.00,0.00,VWS V14.00,2013-07-07 04:45:00,